Temp
18 18 18 18 18 18 19 19 19 19 19 19 19 19 19 19 19 19 19 19 19 19 19 19 19 20 20 20 20 20 20 21 21 20 20 19 19 19 19 20 20 20 21 21 21 21 21 21 22 23 23 23 23 23 23 23 23 23 22 21 21 21 21 22 22 22 21 21 20 21 21 21 20 19 18 18 18 18 18 18 19 18 15 14 15 15 14 12
18 18 18 18 19 19 19 19 19 19 19 19 19 19 19 19 19 19 19 19 19 19 19 19 19 20 20 20 20 20 20 20 20 20 19 19 19 19 19 19 20 20 20 21 21 20 20 21 21 22 23 23 23 23 23 23 23 23 22 21 21 21 21 21 22 22 22 21 21 21 21 21 20 20 18 19 19 18 18 18 18 17 14 13 13 13 13 12
18 18 19 19 19 19 19 19 19 19 19 19 19 19 19 19 19 19 19 19 19 19 19 19 19 19 20 20 20 20 20 20 20 19 19 19 19 19 19 19 20 20 20 21 21 20 20 21 20 21 23 23 23 23 22 23 23 22 22 21 21 22 21 21 21 21 21 21 21 21 21 21 20 19 18 19 19 18 18 18 17 17 15 13 11 11 11 11
18 18 19 19 19 19 19 19 19 19 19 19 19 19 19 19 19 19 19 19 19 19 19 19 19 19 20 20 20 20 19 19 20 19 19 19 19 19 19 20 20 20 20 20 21 21 21 21 20 21 22 22 23 23 23 22 22 22 22 22 22 22 22 21 20 20 20 21 21 21 20 21 20 19 19 19 19 18 18 18 18 18 16 13 11 10 11 10
18 18 18 19 19 19 19 19 18 18 19 19 19 19 19 19 19 19 19 19 19 19 19 19 19 19 20 20 20 20 19 20 20 19 19 19 19 20 20 20 20 20 20 20 21 21 21 21 21 22 23 22 23 23 23 22 22 22 22 22 22 22 22 20 19 19 20 20 21 21 20 20 20 19 19 19 19 19 19 19 19 19 17 14 11 10 10 10
19 19 19 19 19 19 19 18 18 18 18 18 19 19 19 19 19 19 19 19 19 19 19 19 19 20 20 20 20 19 19 20 20 19 19 19 19 20 20 20 20 20 20 20 21 21 21 21 21 22 22 22 22 22 22 22 22 22 22 22 21 21 22 20 19 19 19 20 20 20 19 19 20 19 19 19 19 19 20 20 19 19 17 14 12 11 10 10
19 19 19 19 19 19 18 18 18 18 18 18 18 19 19 19 19 19 19 19 19 19 19 19 20 20 20 20 20 19 19 19 19 19 19 19 20 20 20 20 19 20 20 20 20 21 21 21 21 22 22 22 22 22 21 21 22 22 21 22 21 21 21 19 19 18 18 20 19 19 19 19 19 19 19 19 19 19 19 19 17 15 14 13 12 11 11 10
19 19 19 19 19 19 18 18 18 18 18 18 18 19 19 19 19 19 19 19 19 20 19 19 20 20 20 20 19 19 19 19 19 19 19 19 20 20 20 20 20 20 20 20 20 20 21 21 22 22 22 22 22 22 21 21 21 21 21 21 20 21 20 19 19 18 18 19 18 18 19 19 19 18 18 19 19 19 19 18 16 15 15 14 13 12 11 11
18 18 19 19 19 19 18 18 18 18 18 18 19 19 19 19 19 19 19 20 20 20 20 19 20 20 20 19 19 19 20 19 19 18 19 19 20 20 20 20 20 20 20 20 20 21 20 21 22 22 21 21 22 21 21 21 21 20 20 20 20 20 19 19 19 18 18 18 18 18 18 18 18 18 18 19 19 19 18 18 18 17 17 16 14 13 12 11
18 18 18 19 19 19 19 18 18 18 19 19 19 19 19 19 19 19 19 20 20 20 20 20 20 20 20 19 18 19 19 19 19 18 19 19 20 20 20 20 20 20 19 20 20 21 20 20 20 21 21 21 21 21 20 21 20 19 19 19 19 20 19 19 19 18 18 18 18 18 18 18 18 18 18 19 20 19 19 18 17 17 17 17 15 13 11 11
18 18 18 19 19 19 19 19 19 19 19 19 19 19 19 19 19 19 19 19 20 20 20 20 20 19 19 19 18 19 19 19 19 19 19 19 20 20 20 19 19 19 19 19 20 20 20 20 19 20 21 21 20 20 19 19 19 19 19 19 19 19 19 18 19 18 18 18 18 18 17 17 17 17 18 19 19 20 20 19 17 17 17 17 15 14 12 11
18 18 19 19 19 19 19 19 19 19 19 19 19 19 19 19 19 19 19 19 20 20 20 20 20 19 19 19 19 19 19 19 19 19 19 19 20 20 19 19 19 19 19 19 19 20 20 19 20 21 20 20 20 19 19 18 18 19 19 19 19 19 19 19 18 18 18 18 18 18 18 18 17 17 20 19 18 19 19 20 18 17 17 16 15 15 14 12
18 19 19 19 19 19 19 19 19 19 19 19 19 19 19 19 19 19 19 19 19 20 20 20 19 19 19 19 19 19 19 19 18 19 19 19 20 20 19 19 19 19 19 19 19 20 20 19 20 20 19 19 20 19 18 18 18 19 18 18 19 19 19 19 18 18 18 18 18 18 19 20 19 18 21 19 17 18 19 19 19 18 17 16 15 16 15 13
19 19 19 19 19 19 19 19 19 19 19 19 19 19 19 19 19 19 19 19 19 19 20 20 20 19 18 19 19 19 19 19 18 19 19 19 20 20 20 19 19 19 19 19 19 20 20 20 20 19 18 18 19 18 18 18 18 19 18 18 17 18 20 19 17 18 18 17 17 18 18 19 20 19 20 19 18 18 19 19 19 18 17 16 16 16 16 14
19 19 19 19 19 19 19 19 20 20 20 19 19 19 19 19 19 19 19 19 19 19 19 20 20 19 18 19 19 19 19 19 18 18 18 19 19 19 19 19 20 20 20 19 20 20 20 20 20 19 18 17 18 18 18 18 18 18 19 19 17 18 19 18 17 17 18 17 16 18 17 17 18 19 19 18 18 18 19 19 18 18 17 17 17 16 16 14
19 19 20 20 20 20 20 20 20 20 20 20 20 20 20 20 19 19 19 19 19 19 19 19 19 19 19 19 19 19 19 19 18 18 18 18 18 18 18 19 20 20 20 20 20 20 20 20 19 18 18 18 18 19 18 18 18 17 18 19 18 18 18 18 18 17 18 17 16 17 18 17 18 19 19 18 19 19 19 19 18 17 17 17 17 16 16 15
19 20 20 20 20 20 20 20 20 20 20 20 20 20 20 20 20 20 20 19 19 19 19 19 19 19 19 19 19 19 18 18 18 18 18 18 18 18 18 19 19 19 19 20 20 20 20 20 18 18 18 18 18 18 18 18 19 18 17 18 18 18 18 18 18 17 17 17 16 16 16 16 17 18 17 17 18 18 18 19 17 17 17 16 15 15 15 15
20 20 20 20 20 20 20 20 20 20 20 20 21 20 20 20 20 20 20 19 19 19 19 19 19 19 19 19 19 18 18 18 18 18 18 18 18 18 18 18 18 18 19 20 20 20 20 19 18 18 18 18 18 17 18 19 19 19 18 18 18 18 18 18 18 17 16 16 16 16 15 15 16 16 16 17 17 18 18 17 16 16 15 14 14 14 14 14
20 20 20 20 20 21 20 20 20 20 20 21 21 20 19 20 19 19 19 19 19 19 19 18 18 19 19 18 18 18 18 18 18 18 18 18 18 18 18 18 18 18 18 19 19 19 19 19 17 18 18 18 18 17 18 19 19 19 19 18 18 18 17 18 18 16 15 16 15 15 15 15 15 16 16 17 17 17 16 15 14 14 14 13 14 14 13 13
20 20 20 20 21 21 21 21 20 20 21 21 20 20 20 20 20 19 19 18 18 18 18 17 17 18 18 18 17 18 18 18 18 18 18 18 18 18 18 18 18 18 18 19 19 18 18 18 17 18 18 18 17 17 17 18 18 18 18 18 17 17 17 17 17 15 14 16 16 15 15 15 15 16 16 16 16 15 14 14 13 13 13 12 12 12 12 12
20 20 20 20 21 21 21 21 21 21 20 20 20 20 19 18 19 19 18 17 16 15 16 16 16 17 17 17 17 17 17 18 17 17 18 18 17 18 18 18 18 18 18 18 18 18 17 18 18 17 17 17 17 17 17 18 18 18 18 17 17 16 16 16 15 14 14 15 16 16 15 15 15 15 15 15 15 14 13 13 12 12 11 11 11 11 11 11
20 20 20 20 21 21 21 21 20 20 20 21 20 17 16 15 16 16 16 17 16 15 16 16 16 17 17 17 17 16 16 18 17 17 18 18 18 18 18 18 18 18 18 18 18 18 17 18 17 16 16 16 17 17 17 17 17 17 17 16 16 16 16 15 15 14 14 14 16 16 15 15 15 15 14 13 13 12 12 12 11 11 11 11 11 10 10 10
20 20 20 20 21 21 21 20 20 20 20 20 19 16 14 15 15 15 15 17 17 16 16 16 17 17 17 17 17 16 17 17 17 17 17 17 18 17 17 18 18 18 18 18 18 17 18 18 16 15 15 16 17 16 17 17 16 16 16 16 17 16 16 16 15 14 14 14 15 15 14 14 14 14 13 12 12 12 11 11 11 11 11 10 10 10 10 10
20 20 20 20 21 21 21 20 19 19 18 19 17 15 15 15 15 15 16 17 18 16 16 16 16 17 17 17 16 16 17 17 17 17 16 17 17 17 17 17 17 18 18 18 18 17 18 17 14 15 16 16 16 16 16 16 16 16 16 15 16 16 16 16 15 14 15 15 14 14 15 15 14 13 13 12 12 11 11 11 11 10 10 10 10 10 10 10
20 20 20 20 21 21 21 20 19 18 17 17 16 15 15 15 15 15 16 18 18 17 16 16 16 17 17 17 17 16 16 16 16 16 15 16 16 17 17 17 17 18 18 18 18 18 18 15 13 15 16 15 16 16 16 16 15 16 15 14 15 15 15 15 14 14 15 15 14 14 15 16 14 14 13 12 12 11 11 11 10 10 10 10 10 10 9 9
20 20 20 20 21 21 21 20 18 17 17 16 15 16 15 15 16 15 16 18 18 18 17 17 17 17 16 17 17 16 16 17 16 15 15 15 15 16 17 17 17 17 17 17 17 17 16 13 13 15 15 15 15 15 15 15 15 16 14 13 13 14 14 14 14 14 14 15 14 14 15 15 14 15 13 11 11 11 10 10 10 10 10 9 9 9 9 9
20 20 20 20 20 20 20 19 18 17 17 16 15 16 15 16 16 15 17 19 19 18 18 17 17 17 17 17 16 16 18 17 16 16 15 15 15 15 17 17 17 17 16 17 18 16 15 14 14 15 15 15 15 15 15 14 15 16 14 12 13 14 14 14 13 13 13 13 13 13 14 13 14 14 12 11 11 10 10 10 10 10 9 9 9 9 9 9
19 19 20 19 19 19 19 18 18 17 16 16 15 15 16 16 15 15 18 20 19 18 17 17 17 17 16 16 16 17 17 17 17 16 15 15 15 15 16 17 16 17 16 17 18 15 14 15 16 15 15 15 15 15 14 14 15 15 13 12 13 13 13 13 12 13 12 12 13 14 13 13 14 13 11 11 11 10 10 10 10 10 9 9 9 9 9 9
19 19 19 19 19 18 18 18 17 16 16 16 15 16 16 15 15 17 19 19 19 18 17 17 17 17 17 16 16 16 16 16 17 16 14 14 15 14 16 15 15 16 16 16 17 15 14 14 14 14 15 15 14 13 13 14 15 14 12 12 12 11 12 12 12 12 12 12 14 14 13 14 14 12 12 11 11 10 9 9 10 10 9 9 9 9 9 9
19 19 19 19 19 18 17 17 17 16 16 16 16 16 15 15 17 18 19 19 19 18 17 17 17 17 17 16 16 16 16 16 16 16 15 15 14 14 14 14 14 15 15 15 15 14 13 12 12 13 13 13 13 12 12 13 13 13 12 13 13 11 11 12 12 12 12 13 13 12 12 14 14 13 12 11 10 10 9 9 9 9 9 9 9 9 10 9
19 19 18 18 18 17 17 17 16 16 16 16 16 16 16 17 18 19 19 18 18 18 18 18 17 16 16 15 16 16 16 16 16 16 16 16 15 15 15 14 15 15 15 15 15 13 12 13 12 12 11 12 12 12 12 11 11 12 12 13 14 13 12 12 12 12 13 14 13 12 13 14 14 13 10 9 9 9 10 10 10 9 9 9 9 9 9 9
18 18 18 18 17 17 17 16 16 16 16 16 16 16 17 19 19 19 19 18 18 18 17 17 16 16 15 15 15 15 15 16 15 15 15 15 15 14 14 14 14 16 17 16 16 15 14 13 12 11 11 11 12 14 13 12 12 13 13 13 14 14 14 14 13 13 14 14 13 13 14 14 13 11 9 9 9 10 10 10 10 10 10 9 9 9 9 9
18 18 18 17 17 17 16 16 16 16 16 16 16 17 18 19 19 18 18 18 18 17 16 15 15 15 15 15 15 14 14 15 15 15 14 15 15 14 13 13 12 15 17 15 15 16 15 13 12 12 12 11 12 14 15 14 13 13 14 14 14 14 13 13 13 14 14 14 12 12 13 14 12 9 9 10 10 10 10 10 10 10 10 9 9 9 9 9
18 18 18 17 17 17 16 16 16 17 16 16 17 18 19 19 18 17 17 17 16 16 16 15 14 15 15 15 15 13 15 16 15 14 15 15 15 15 14 13 12 13 15 15 15 15 16 15 14 13 13 11 11 13 13 13 13 13 13 13 14 14 13 13 13 13 13 13 13 12 12 13 12 10 9 10 9 10 10 10 10 10 9 9 9 9 9 8
18 18 17 17 17 17 17 17 16 17 17 17 18 19 19 19 18 16 16 15 15 15 15 14 14 15 16 15 14 13 15 16 15 15 16 15 15 14 14 13 12 12 14 15 15 14 15 16 14 11 11 11 11 11 10 12 13 12 12 13 13 13 13 13 12 12 12 12 12 12 12 10 10 9 9 9 10 9 9 9 9 9 9 9 9 8 7 7
18 17 17 17 17 17 17 17 17 17 17 18 19 18 18 17 16 16 15 14 14 14 14 15 15 16 17 16 15 14 13 15 15 15 16 15 13 13 13 12 11 11 13 14 15 14 14 15 13 11 11 10 10 11 10 11 13 13 13 13 12 12 12 12 12 12 12 11 12 13 11 9 9 10 9 9 10 9 8 8 8 8 8 8 8 7 6 6
18 17 16 16 17 17 17 17 17 17 17 18 19 18 16 15 13 13 12 12 13 12 13 16 16 16 16 16 16 15 14 14 15 15 16 15 14 13 12 12 10 11 11 12 14 14 13 14 13 11 12 11 9 10 10 10 11 13 13 12 11 11 11 12 12 12 11 11 12 13 12 10 9 9 9 9 9 8 7 7 7 7 7 7 6 6 6 6
17 16 16 17 17 17 17 17 17 17 17 18 18 16 15 14 12 11 11 11 12 12 13 15 16 16 15 15 15 14 14 15 15 15 15 15 14 12 11 11 11 11 10 10 13 13 12 14 13 11 12 11 9 10 11 10 10 11 12 11 11 12 12 12 11 11 11 10 11 12 12 11 9 9 9 8 7 6 6 6 6 6 6 6 6 5 5 5
17 17 17 17 17 18 18 18 17 17 18 18 18 16 14 13 11 10 9 10 10 12 14 14 14 15 15 14 14 14 14 14 14 14 15 15 14 11 10 10 11 11 10 10 12 12 12 13 13 12 11 11 11 12 13 12 11 11 11 11 12 12 12 12 12 11 10 10 10 10 11 9 9 9 8 7 6 6 5 5 5 5 5 5 5 5 4 4
16 17 18 17 18 18 18 18 17 17 18 17 16 15 13 12 11 9 8 9 10 12 13 13 13 14 14 13 13 13 13 14 14 14 15 14 13 12 9 7 9 10 9 9 11 11 12 13 13 13 12 12 12 12 12 13 12 12 12 12 12 12 12 11 11 11 10 10 9 9 9 8 8 9 7 6 6 5 5 4 4 5 5 4 4 4 3 3
16 18 18 17 18 18 18 18 18 17 16 16 14 14 12 11 11 10 9 9 10 11 11 12 12 13 13 13 13 13 13 13 14 14 15 13 13 13 8 4 6 7 8 11 11 11 12 12 12 12 12 13 13 11 10 10 11 12 12 11 11 12 12 11 10 10 10 10 9 9 8 7 7 8 6 6 6 5 4 4 4 4 4 3 3 3 2 2
16 18 18 18 18 18 18 18 16 15 16 15 13 12 11 10 10 11 10 9 10 10 10 11 12 12 12 12 13 13 13 13 13 14 14 13 12 11 8 3 4 5 7 11 11 9 10 11 10 11 12 11 11 9 8 9 9 11 11 10 11 11 11 10 10 9 9 9 9 8 8 7 7 7 6 5 5 4 4 3 3 3 3 3 2 2 2 2
17 17 18 18 17 17 18 18 16 15 14 12 10 10 10 10 11 11 10 10 11 11 11 11 11 12 12 12 12 12 13 13 13 13 13 12 11 8 5 3 4 5 7 10 10 9 9 10 10 12 12 11 10 10 9 9 10 11 10 9 10 10 9 9 9 8 8 8 8 8 8 7 6 5 5 4 4 4 3 3 2 2 2 2 1 1 1 1
15 15 17 18 18 18 18 17 16 16 14 11 11 11 10 10 10 11 11 11 11 11 11 12 11 11 12 11 11 12 12 13 13 13 12 13 10 5 3 3 4 6 7 8 8 8 9 11 11 11 12 11 11 11 11 10 11 11 9 8 8 9 8 8 8 8 8 7 6 7 7 8 6 4 3 3 3 3 2 2 2 1 1 1 1 1 1 1
15 15 16 17 17 17 16 15 15 15 14 13 13 12 12 11 9 9 10 10 10 10 11 11 11 11 11 11 11 12 12 13 13 12 11 12 9 5 4 4 4 5 5 5 5 6 9 11 10 10 11 11 11 11 11 10 10 10 9 8 8 8 8 8 8 7 7 6 6 6 6 7 6 3 2 2 2 2 1 1 1 1 1 0 0 0 0 -0
16 17 17 17 16 15 13 13 13 15 14 14 14 13 13 13 10 8 9 10 10 9 10 10 10 10 11 11 12 12 12 12 12 12 11 12 10 6 4 4 4 5 5 4 5 6 9 10 9 10 10 10 10 11 10 9 9 9 8 7 7 7 7 8 7 6 6 5 5 5 5 5 4 1 1 1 1 1 1 1 1 0 0 -0 -0 -0 -1 -1
16 16 15 16 16 15 14 13 13 14 13 13 14 13 13 13 12 10 10 10 10 9 10 10 10 11 12 11 11 12 12 12 11 11 10 10 10 7 4 4 5 5 5 5 5 6 9 10 8 9 10 10 10 9 9 9 8 8 7 7 7 6 7 7 6 5 5 5 5 5 5 5 3 0 -0 0 0 0 0 -0 0 -0 -1 -1 -1 -2 -2 -3
15 15 13 13 15 15 15 14 12 13 13 13 13 13 13 13 13 12 11 10 9 9 10 11 11 11 11 11 11 12 12 12 11 10 10 9 9 8 7 6 6 5 5 7 6 7 9 9 8 8 9 10 9 9 8 8 7 6 6 6 5 5 5 5 5 5 5 4 4 5 5 4 1 -1 -0 -0 -0 -0 -0 -0 -0 -1 -1 -2 -2 -3 -3 -4
14 14 12 11 13 14 13 12 12 13 13 13 13 13 13 13 13 12 11 11 11 10 10 12 12 11 11 11 11 11 11 12 11 10 9 8 8 9 9 8 7 6 6 7 7 6 7 9 8 8 8 9 9 9 8 7 6 5 5 5 4 4 4 4 4 5 4 4 4 4 3 3 0 -1 -1 -0 -0 -0 -1 -1 -1 -2 -2 -2 -3 -4 -4 -4
14 15 13 12 13 13 12 11 12 14 14 13 13 13 12 12 12 12 10 11 12 11 11 12 11 10 11 11 11 11 10 10 11 10 8 8 8 8 8 8 7 7 7 7 7 7 7 9 8 8 8 9 9 8 7 6 5 4 4 4 4 3 3 3 4 4 3 3 3 2 2 1 0 -0 -1 -1 -1 -1 -1 -2 -2 -2 -2 -3 -4 -4 -5 -5
13 13 13 14 15 13 13 13 13 14 14 13 13 13 12 12 12 11 10 9 10 11 10 10 10 10 10 10 10 10 8 7 8 8 7 7 7 7 7 7 7 7 7 7 7 7 8 8 8 8 8 9 9 7 6 5 5 4 3 3 3 3 2 3 3 2 2 2 2 0 -0 -1 -1 -1 -1 -1 -1 -2 -2 -3 -3 -3 -3 -4 -5 -5 -5 -5
12 12 12 14 15 13 13 14 13 14 14 12 12 12 12 12 11 11 12 10 8 9 9 9 9 9 10 11 10 8 6 6 6 6 5 6 6 6 7 7 6 7 7 7 6 6 7 7 7 7 8 9 9 8 6 6 6 5 3 3 3 2 2 2 3 1 0 0 -0 -1 -2 -1 -1 -1 -2 -2 -2 -2 -3 -3 -3 -3 -4 -5 -5 -5 -6 -6
Height
824 823 823 823 823 823 822 822 822 821 821 820 820 819 819 818 817 817 817 816 816 815 815 815 814 813 812 812 811 810 809 808 808 808 808 808 807 807 806 806 805 805 804 803 803 802 801 800 799 797 798 798 798 798 798 797 798 803 811 819 821 820 818 813 810 810 809 811 810 808 807 809 811 810 811 811 812 813 814 813 811 811 813 813 812 812 814 819
824 823 823 823 823 822 822 822 822 821 821 820 820 819 819 818 817 817 816 816 816 815 815 814 814 813 812 811 810 809 808 807 807 807 807 807 807 806 805 805 804 804 803 803 803 802 803 801 798 798 798 800 799 798 800 799 799 805 812 818 819 815 812 808 807 807 807 808 808 807 806 807 808 809 810 812 813 814 814 814 812 814 816 816 814 814 816 818
824 824 823 823 823 822 822 822 821 821 821 820 820 819 819 818 817 816 816 816 815 815 814 814 813 812 811 810 810 809 808 807 807 807 807 806 806 805 805 804 803 803 803 802 802 802 802 800 799 799 799 801 799 799 801 800 801 804 810 817 814 809 808 807 806 805 806 806 807 807 806 806 806 807 810 811 812 814 813 811 811 813 815 816 816 815 816 818
825 824 823 823 823 822 822 821 821 821 820 820 820 819 819 817 817 816 816 815 815 815 814 814 813 811 810 809 810 809 808 808 808 807 807 806 806 805 804 804 803 803 802 802 802 801 801 799 799 799 800 802 800 799 801 801 802 803 807 812 809 804 806 807 805 806 805 805 806 806 807 807 805 807 808 809 813 812 808 805 806 806 809 814 816 815 815 817
825 824 824 823 822 822 821 821 821 821 820 820 819 819 818 817 817 816 815 815 815 815 814 813 812 811 810 809 810 808 809 813 810 806 806 806 805 805 804 803 803 802 802 802 801 800 800 799 799 799 800 802 801 800 802 800 800 803 804 804 804 803 805 807 806 807 806 805 805 805 807 806 804 806 806 808 810 806 801 800 800 800 803 808 811 813 814 815
825 824 824 823 822 822 821 821 821 820 820 819 819 819 818 817 816 816 815 815 814 814 814 813 812 811 810 809 809 808 811 814 809 805 806 805 805 804 803 803 802 802 801 801 800 800 800 799 800 802 802 802 802 802 802 800 799 804 805 801 802 801 802 805 806 807 806 804 804 805 806 805 804 806 805 805 803 797 796 797 798 798 799 802 806 810 812 812
825 824 824 823 822 822 821 821 821 820 820 819 819 818 818 817 816 816 815 815 814 814 813 813 812 811 810 809 808 808 811 811 806 805 806 804 805 804 803 802 801 801 801 800 800 800 800 800 801 802 802 803 802 801 802 800 799 804 805 801 802 801 801 804 804 806 806 804 805 805 806 805 807 807 805 802 796 794 796 796 797 797 797 800 804 807 807 808
825 824 824 823 823 822 822 821 821 820 819 819 819 818 817 817 816 816 815 815 814 813 813 812 812 811 810 809 809 810 810 808 805 806 805 804 804 803 803 802 801 801 800 800 800 801 801 801 801 801 803 803 801 801 801 801 802 803 804 802 801 801 801 803 803 805 805 804 805 805 806 806 806 806 805 798 791 792 795 795 796 797 797 800 802 803 805 806
825 824 824 823 823 822 822 821 820 820 819 819 818 818 817 817 816 815 815 814 813 813 813 812 812 810 810 809 809 812 809 806 806 805 805 804 804 803 803 801 801 800 800 800 800 800 802 801 800 800 802 802 799 800 801 804 805 803 803 803 802 801 801 803 803 804 805 804 805 805 806 807 805 806 802 792 788 790 791 793 795 796 797 798 799 800 802 804
825 824 824 823 823 822 821 821 820 820 819 819 818 817 817 816 816 815 814 813 813 813 812 812 811 810 810 809 811 814 808 805 806 805 805 804 803 803 802 802 801 800 800 800 799 799 800 801 800 799 800 800 799 802 803 804 805 804 803 803 802 801 801 802 803 803 805 805 805 805 806 806 804 808 802 787 785 789 789 792 794 794 795 795 797 798 800 802
825 824 824 823 823 822 822 821 820 820 819 818 818 817 817 816 815 815 814 813 812 812 812 811 810 810 810 809 813 814 807 805 806 804 804 803 803 803 802 802 801 801 800 799 799 799 799 799 799 798 799 800 801 803 804 803 803 803 803 803 802 801 802 802 802 803 805 805 804 805 806 806 807 809 799 786 785 788 788 790 792 793 793 793 795 797 799 801
826 825 824 823 823 822 822 821 820 820 819 818 817 816 816 815 814 814 813 812 812 811 811 811 810 810 809 809 811 809 806 806 805 804 804 803 803 802 802 802 801 801 801 800 800 799 799 798 797 799 801 801 803 806 804 803 804 803 804 805 803 803 803 800 801 802 804 805 803 805 806 803 806 803 788 784 787 788 788 788 790 792 791 792 794 795 798 798
826 825 824 824 823 822 822 821 820 819 818 817 817 816 815 814 813 813 812 812 811 811 811 810 810 809 810 810 808 806 806 805 805 804 804 803 803 802 802 802 801 801 800 800 799 798 799 798 797 799 800 801 804 806 804 804 804 804 805 808 808 808 804 797 799 801 803 805 801 805 808 798 796 794 784 784 787 788 789 787 788 790 790 791 793 794 795 797
826 825 824 824 823 822 821 821 820 819 818 817 816 815 814 813 812 812 811 811 810 810 810 809 809 809 810 809 806 806 806 805 805 804 803 803 802 802 802 801 801 801 800 800 799 798 798 798 797 799 801 803 804 804 805 806 806 807 808 809 813 813 804 797 799 801 803 807 802 805 812 800 790 789 786 784 785 787 788 787 787 788 789 791 791 793 794 795
826 825 824 824 823 822 821 820 819 818 817 816 814 813 812 811 811 810 810 810 809 809 809 809 808 808 810 808 805 806 806 805 805 804 803 803 802 802 801 801 801 800 800 800 799 798 798 798 798 801 803 804 804 806 809 810 809 809 810 811 815 815 806 800 801 801 802 806 805 806 811 805 793 787 785 785 785 786 786 786 787 787 788 789 790 792 793 795
826 825 824 824 823 821 820 819 818 817 815 814 813 811 810 809 809 809 809 808 808 808 808 808 807 808 811 809 805 806 806 805 805 804 803 803 803 802 802 801 800 800 800 799 799 799 798 798 800 803 804 805 807 809 812 814 813 812 813 811 812 812 809 805 802 802 801 803 807 806 805 802 793 785 785 786 785 787 787 785 786 788 788 788 789 791 793 796
826 825 824 823 822 821 819 818 817 816 814 813 811 810 809 808 808 807 808 808 808 808 807 808 807 807 809 807 805 806 806 805 804 804 803 803 803 802 802 801 800 800 799 798 798 798 798 800 803 804 805 807 809 812 817 818 813 813 815 813 810 809 809 808 805 803 802 804 806 807 806 802 793 788 787 787 788 789 787 785 786 789 790 791 792 793 796 798
826 825 824 823 822 820 819 817 816 815 813 812 810 809 808 807 807 807 807 807 807 807 807 807 807 810 811 807 806 807 805 805 804 803 803 802 802 802 802 801 801 800 800 800 799 799 800 802 805 808 809 810 810 814 818 813 808 809 812 813 811 808 808 807 804 803 804 805 806 808 808 803 798 794 789 787 789 788 787 788 790 792 794 795 796 797 799 802
826 825 824 823 821 820 818 817 815 814 813 812 810 808 807 806 806 807 807 807 807 809 810 810 809 813 813 808 807 806 804 804 803 803 803 802 802 801 801 801 801 801 803 804 803 802 802 805 810 812 811 810 810 813 812 807 806 807 807 809 810 809 808 805 803 804 806 807 808 808 805 802 800 796 790 789 789 788 790 792 794 795 796 798 798 800 802 806
826 825 823 822 821 819 818 816 815 814 813 811 810 807 808 809 810 809 808 808 809 811 811 811 810 811 810 808 807 806 804 803 803 803 803 802 801 801 801 801 802 804 806 807 806 804 805 810 814 812 810 810 810 810 808 806 807 807 807 809 810 811 809 805 803 807 808 807 806 804 805 805 800 794 791 791 790 793 794 794 797 799 800 801 803 805 806 809
826 825 823 822 820 819 817 816 815 814 813 812 810 809 812 815 815 815 813 810 810 811 811 810 810 810 809 808 808 806 805 804 804 803 803 802 801 802 802 802 806 807 806 806 807 806 808 813 812 810 810 810 809 808 807 806 805 806 808 809 811 812 809 806 807 808 809 809 804 802 805 804 797 794 794 793 794 798 798 798 801 803 804 806 807 809 810 811
826 825 823 822 820 818 817 816 815 814 813 812 811 812 815 816 816 817 816 814 812 811 811 810 810 810 809 808 808 807 807 806 805 804 803 802 801 803 804 804 808 809 806 807 808 810 813 812 809 810 811 809 808 808 807 807 808 808 810 812 812 810 809 808 809 809 810 810 804 800 804 801 797 797 799 799 800 803 803 802 805 806 807 810 811 812 813 814
826 824 823 821 820 818 817 815 815 814 813 812 812 814 815 816 816 816 817 817 815 812 811 811 810 810 809 809 808 807 807 807 807 805 803 802 802 804 806 806 808 808 807 807 809 814 813 808 809 811 810 808 808 808 808 808 809 809 812 813 810 809 809 807 809 811 810 809 804 803 807 803 801 802 803 805 804 806 807 806 808 809 811 814 815 816 816 818
825 824 822 821 819 818 816 815 815 814 814 813 814 815 816 816 816 816 816 816 814 812 811 811 810 810 809 809 808 808 808 808 808 806 804 804 804 805 806 806 808 808 808 806 808 812 808 808 813 812 809 809 809 808 809 810 811 810 812 813 810 810 811 809 811 811 808 807 806 808 807 801 803 806 806 808 808 808 810 809 811 814 815 817 817 818 820 821
825 823 822 820 819 818 816 815 815 815 815 814 815 816 816 816 816 816 816 816 816 813 811 811 811 810 809 809 808 808 809 808 807 806 805 805 805 806 805 806 808 808 807 806 807 807 805 810 814 810 809 810 809 809 809 812 815 813 812 815 814 811 811 811 812 811 809 809 808 810 807 802 804 807 807 810 811 812 814 814 816 818 819 819 820 822 823 824
825 823 822 820 819 817 815 815 815 815 815 815 816 816 816 816 816 816 817 820 820 815 813 813 812 811 809 809 808 808 810 809 807 806 806 806 806 806 806 806 807 808 807 806 806 806 808 813 814 810 810 811 812 813 812 814 816 813 813 817 816 813 812 812 812 813 812 811 810 811 812 810 805 802 808 814 816 817 818 818 820 821 822 823 824 826 826 827
824 823 822 820 818 817 816 816 816 815 815 816 816 816 816 816 816 815 817 824 823 816 814 813 812 811 810 809 808 809 811 809 806 806 806 806 806 806 807 807 807 807 807 806 806 808 811 812 811 811 812 812 813 814 813 815 814 811 814 818 815 812 813 813 815 817 815 815 814 810 812 816 810 805 812 818 817 821 823 822 824 824 825 827 827 828 828 829
824 823 821 820 818 817 817 816 816 815 816 816 815 816 816 815 816 815 819 828 824 815 814 813 811 810 809 809 809 810 811 808 808 808 806 807 807 808 809 808 809 808 807 809 809 811 812 809 809 812 813 814 813 813 815 815 811 810 816 818 815 815 815 816 818 818 818 819 814 809 811 814 812 812 817 819 819 825 827 826 827 827 827 828 829 829 830 831
824 822 821 820 818 817 817 816 816 816 816 816 815 816 815 815 816 815 822 829 822 814 815 813 811 811 810 810 810 811 811 809 809 808 807 808 808 809 810 810 810 809 807 809 809 809 812 813 813 814 813 813 814 815 816 814 812 813 817 817 816 819 819 818 820 819 820 819 811 809 811 808 809 814 816 817 821 828 830 829 829 829 829 829 830 830 830 831
824 822 821 819 818 818 817 816 816 816 816 815 815 815 814 815 816 821 829 828 819 815 815 812 813 814 814 814 813 813 812 811 810 809 808 809 809 809 810 811 811 810 811 812 810 811 815 816 817 817 816 816 816 817 817 816 815 815 817 815 814 820 822 820 821 820 819 815 811 814 813 807 808 814 818 822 825 828 831 831 831 830 830 831 830 831 831 831
823 822 821 819 819 818 817 817 816 816 816 815 815 814 814 816 819 828 832 824 818 818 815 814 817 816 818 821 819 815 814 813 812 811 810 810 811 811 810 811 811 811 812 810 810 814 816 816 817 819 820 819 817 817 817 819 819 817 817 814 810 814 818 816 819 820 814 809 811 815 811 806 807 816 828 833 832 831 831 830 831 832 832 832 832 832 833 833
823 822 821 820 819 818 817 817 816 816 815 814 814 813 815 821 824 828 826 820 821 822 819 820 820 819 822 824 822 821 819 816 814 814 815 814 816 818 818 819 817 813 811 811 810 810 813 817 820 820 820 820 818 814 815 818 818 816 815 814 811 812 813 813 814 813 809 809 813 813 808 806 814 827 836 836 833 832 831 829 830 831 832 833 834 834 834 834
823 822 821 820 819 818 818 817 816 815 815 814 814 814 818 825 828 829 826 822 824 824 823 825 823 822 824 822 823 826 822 817 816 816 818 817 818 822 824 825 825 819 814 817 816 810 811 817 820 818 818 822 820 813 812 814 814 814 813 814 815 816 820 819 815 812 809 809 814 816 812 809 820 835 838 833 833 832 830 831 831 831 833 834 835 835 835 837
822 821 820 820 819 818 818 817 816 815 814 813 814 816 822 828 831 832 830 827 827 825 824 827 826 824 825 823 826 827 821 817 818 818 818 817 818 821 823 824 826 824 820 819 818 815 814 813 815 817 817 821 822 818 818 818 817 818 816 816 816 817 822 821 818 818 815 813 814 815 814 813 820 835 837 833 834 833 833 834 833 834 836 837 837 837 838 839
821 820 820 819 818 818 817 816 816 815 814 813 815 821 827 830 831 832 833 833 832 829 827 829 828 824 822 825 828 828 824 819 820 819 816 819 822 824 825 827 830 828 824 820 817 819 818 811 815 822 822 822 822 822 825 821 817 818 817 816 817 818 821 820 820 822 820 821 819 813 820 829 831 835 837 835 834 835 837 837 836 838 838 839 839 840 841 842
821 819 819 819 818 818 817 816 816 815 814 815 819 826 831 832 833 834 836 837 837 836 832 827 826 822 822 825 824 827 828 824 822 819 817 821 827 829 829 832 835 832 828 825 821 822 821 813 817 824 823 824 825 824 826 822 816 816 816 816 820 822 822 819 821 821 820 825 820 810 823 840 839 836 838 837 836 837 840 841 841 842 842 842 843 843 844 844
820 819 819 819 818 817 817 816 815 814 814 816 821 829 833 836 840 841 841 840 839 840 836 828 824 825 827 827 823 826 827 824 824 822 819 822 827 832 832 834 837 835 834 833 825 824 826 819 818 821 819 823 829 826 825 826 822 817 816 818 822 824 822 822 824 823 825 829 820 810 818 832 837 838 838 839 841 843 845 846 845 845 845 845 846 846 846 845
820 819 819 819 818 818 817 816 815 815 816 819 825 832 835 838 843 846 845 844 842 840 837 833 828 826 829 830 828 829 828 824 824 824 822 822 828 834 836 835 836 835 837 837 828 825 829 822 818 821 820 822 829 826 821 825 827 821 819 822 821 820 819 823 826 827 832 836 828 818 818 827 836 838 839 845 850 851 850 849 848 848 848 847 848 848 847 847
819 819 820 820 818 817 816 816 816 815 817 823 829 833 837 841 845 848 848 848 846 841 836 836 834 830 830 833 832 832 831 829 828 827 825 824 828 836 841 839 836 835 838 838 832 828 829 826 820 820 822 822 823 820 815 819 824 823 823 823 821 821 822 823 824 827 833 837 836 828 825 836 843 840 845 854 856 856 855 854 852 852 851 851 851 850 849 849
820 821 821 820 818 817 816 815 816 817 822 829 833 835 839 843 846 849 850 848 846 843 839 838 838 834 833 836 836 834 834 832 831 828 827 828 830 835 846 849 841 839 841 838 835 832 828 827 823 818 820 820 818 820 819 819 820 819 820 822 822 821 822 824 826 829 831 834 838 838 839 849 850 844 851 857 856 858 859 858 858 856 855 855 853 852 851 850
821 823 822 820 818 817 816 816 820 824 828 833 836 838 841 844 846 848 849 849 846 845 844 842 840 838 838 838 837 836 835 833 832 828 827 831 832 833 846 858 853 848 843 833 833 835 830 829 829 824 820 816 818 827 829 827 826 822 820 824 826 823 822 828 832 835 835 835 840 843 846 854 855 850 855 858 857 860 862 861 862 858 857 857 855 854 853 851
822 825 823 819 818 817 816 821 828 830 831 835 840 843 845 846 847 846 847 848 847 846 846 844 842 842 841 839 838 838 836 834 832 829 829 833 837 838 848 860 859 855 848 835 835 841 838 836 836 829 823 823 827 832 833 834 831 826 825 828 828 826 826 831 836 839 841 839 839 843 846 855 858 855 858 861 860 862 863 863 863 860 859 858 857 856 854 851
825 825 822 820 819 817 818 825 831 832 837 844 847 847 848 848 846 846 847 846 846 845 844 843 843 842 841 841 841 839 837 835 832 831 832 834 840 848 856 860 858 855 850 840 838 843 840 837 836 828 823 826 829 829 831 833 828 824 830 834 832 833 835 836 838 842 846 845 845 847 847 852 859 859 860 864 863 862 863 862 862 861 859 858 858 856 853 850
828 826 823 821 818 816 821 830 833 834 840 845 845 846 848 849 848 847 846 846 846 846 844 843 843 843 842 842 842 839 837 836 832 834 835 834 841 855 860 860 858 853 850 847 845 845 839 833 834 832 827 826 826 826 826 827 826 827 834 840 840 840 841 841 843 846 848 851 855 855 846 842 851 859 860 862 862 861 862 862 861 861 859 858 857 855 853 852
828 826 825 824 820 819 827 835 836 835 839 841 841 843 845 847 850 851 849 848 849 848 846 845 845 845 844 842 842 840 838 836 834 837 839 836 844 858 860 858 858 855 854 856 855 851 842 835 836 837 836 835 832 829 828 830 833 833 838 844 844 843 843 843 846 849 852 857 860 859 851 842 849 860 860 860 861 860 861 862 861 862 861 860 859 856 854 854
829 829 828 827 825 827 833 839 837 836 839 840 839 842 843 842 848 853 851 848 849 849 847 846 847 846 843 842 841 839 837 837 836 837 839 837 842 854 859 858 858 856 856 857 856 852 845 840 841 839 839 838 834 832 835 838 838 838 843 847 847 848 847 846 851 857 860 864 862 859 858 854 859 870 871 869 870 868 867 866 864 863 863 862 861 858 857 856
831 834 835 833 831 832 836 840 840 838 840 841 840 842 843 841 844 848 849 848 849 850 848 847 847 844 842 843 842 839 837 839 839 840 843 844 845 853 859 859 856 856 856 854 853 851 844 841 845 845 839 837 836 836 839 841 843 846 851 853 853 854 852 851 858 862 863 867 863 858 858 860 868 880 881 877 876 874 872 870 867 867 866 864 862 860 860 859
832 837 841 839 837 837 837 839 842 842 841 842 842 843 842 841 843 843 845 847 849 849 846 844 845 845 844 845 843 841 839 838 839 843 847 849 848 849 853 855 855 856 855 852 851 852 847 843 847 848 841 837 837 838 841 846 851 857 859 859 861 862 860 861 864 865 866 869 866 862 861 865 875 884 882 880 879 877 875 873 871 870 867 864 863 862 861 860
835 837 841 841 840 841 842 843 845 842 840 841 842 843 842 842 843 843 845 846 845 848 846 842 844 847 846 845 844 843 843 839 839 845 849 851 851 849 848 849 852 855 854 851 852 854 850 844 845 848 844 838 836 837 841 848 856 862 865 865 868 869 868 869 868 867 868 868 867 867 867 871 881 885 882 881 880 878 876 874 871 869 865 863 863 863 861 860
835 836 839 840 840 842 844 846 844 839 840 842 841 842 844 844 844 845 848 847 842 845 847 844 846 848 846 845 845 844 847 847 844 847 852 853 852 852 851 851 853 854 853 852 853 853 850 845 846 849 845 838 837 841 848 855 860 867 869 869 871 873 872 873 871 870 871 870 870 874 876 877 881 883 882 882 880 878 876 873 871 868 866 866 866 864 863 861
836 836 837 837 839 842 842 843 842 838 839 843 842 843 845 845 846 847 849 852 849 846 848 848 849 849 846 845 846 847 853 855 852 852 856 856 855 854 854 855 856 855 852 853 854 853 851 849 849 849 845 840 840 847 857 860 860 866 874 875 876 879 880 878 875 877 880 879 878 883 887 886 884 883 881 879 877 877 876 875 874 870 869 870 869 867 864 862
836 836 837 836 837 842 841 840 841 839 840 845 846 845 845 846 849 848 845 850 854 852 852 852 851 849 846 845 847 852 857 858 857 858 859 858 857 857 856 856 857 856 854 855 856 856 856 855 852 851 849 842 839 847 858 857 854 865 880 882 879 882 886 881 878 885 888 886 887 893 894 891 887 884 881 876 875 877 878 878 876 874 873 871 869 868 866 864
Wind_Speed
5 4 3 3 3 3 3 2 1 0 1 1 2 4 5 6 6 6 5 4 4 4 5 7 8 9 10 11 11 12 13 10 7 5 3 2 5 8 8 9 8 8 8 9 10 10 11 13 13 11 8 4 1 2 1 0 2 4 3 2 2 2 1 2 1 1 2 3 4 5 5 7 4 3 1 1 1 1 2 5 3 4 6 3 6 11 24 32
6 5 4 3 2 2 2 2 1 0 1 1 2 3 5 6 7 6 5 4 4 4 6 8 10 12 12 12 11 12 12 8 6 2 2 3 8 8 8 9 9 8 8 9 9 7 6 7 12 9 2 1 2 1 1 1 1 3 2 2 3 4 2 1 2 1 1 3 5 5 7 6 5 4 3 1 3 3 4 6 2 2 4 5 11 20 28 31
6 5 4 3 2 1 0 0 0 0 1 1 2 3 4 5 6 7 6 5 5 6 8 9 12 14 13 12 10 11 10 6 4 1 2 7 9 8 8 9 8 7 7 8 8 7 6 9 14 9 1 1 3 2 2 1 0 2 3 2 5 5 2 2 3 3 1 4 5 4 5 4 3 4 4 4 4 5 8 6 4 5 4 5 9 19 26 28
6 5 4 3 3 2 1 1 1 2 2 1 2 5 6 6 6 6 7 7 6 7 8 10 13 14 13 9 7 8 6 5 2 1 4 9 7 7 7 8 6 5 7 8 8 8 9 12 13 6 0 2 3 1 2 2 0 1 3 4 6 3 1 1 2 3 1 3 4 4 3 2 3 5 4 5 3 5 8 8 8 10 10 11 9 15 23 24
6 5 4 4 3 3 3 3 3 3 3 2 3 5 7 8 7 5 5 5 6 6 7 10 13 13 10 5 5 6 5 4 2 2 6 8 6 6 7 7 4 6 7 6 7 8 10 10 7 3 1 1 3 2 1 3 2 1 2 5 5 2 1 3 3 1 1 1 1 3 3 3 2 4 5 7 6 7 7 7 10 11 11 14 14 15 19 20
7 6 4 4 4 4 4 3 4 4 4 5 5 6 7 7 7 7 5 4 4 5 6 9 12 12 9 5 5 4 3 1 2 4 9 8 5 6 7 6 5 7 6 4 5 6 7 6 2 2 0 1 3 2 3 2 3 1 4 3 2 3 2 3 3 1 1 2 1 2 2 2 1 2 4 7 10 9 6 6 8 8 10 18 18 16 15 15
6 5 4 3 3 4 4 4 4 5 5 6 7 7 6 7 8 8 6 4 4 5 7 9 11 12 9 7 6 3 2 3 3 6 9 7 5 6 7 6 7 7 4 4 4 4 5 4 3 2 1 2 3 3 2 2 3 3 3 4 2 2 3 4 4 2 0 2 2 2 1 1 1 4 3 6 13 11 7 6 7 6 10 17 16 14 15 16
6 4 3 3 3 3 4 4 4 5 6 6 7 6 6 7 8 8 7 6 7 7 8 9 10 11 10 7 3 3 1 2 3 7 9 6 4 6 6 6 8 8 5 6 6 4 4 4 5 2 1 4 2 1 1 3 2 3 4 4 2 1 4 5 4 3 1 2 2 2 2 4 5 3 4 12 15 10 9 7 7 6 9 13 13 14 14 14
6 5 4 3 3 4 4 4 5 5 6 6 6 6 6 6 7 8 8 8 8 8 9 9 10 11 11 6 3 3 3 1 3 7 7 5 4 6 7 7 9 7 5 7 8 6 3 2 3 1 2 4 2 1 1 1 2 4 4 2 2 2 4 5 4 4 4 3 2 1 4 5 5 3 6 15 15 10 9 7 7 7 7 9 11 13 13 12
7 6 5 4 4 4 4 5 6 6 6 6 6 6 6 5 6 8 9 8 8 8 9 9 10 10 9 5 4 2 3 1 4 6 5 5 5 6 8 9 8 7 8 10 10 5 2 1 4 3 2 2 1 1 1 3 3 3 1 2 3 4 3 5 4 5 5 3 3 4 5 4 3 1 5 12 10 7 7 7 6 8 8 8 8 9 11 12
7 6 6 5 5 5 5 6 6 6 6 6 6 6 5 4 5 9 10 9 7 8 9 9 9 10 7 3 2 2 3 4 5 5 5 5 5 6 10 11 9 9 10 11 9 4 2 4 5 3 1 1 2 1 1 3 2 0 2 4 6 5 4 4 5 5 4 2 4 5 4 5 0 1 9 14 8 3 5 8 7 8 8 8 8 7 8 10
7 7 7 6 6 6 6 7 7 7 7 6 6 7 7 7 8 10 11 10 8 6 7 8 8 8 6 2 3 4 3 4 4 5 6 6 5 6 8 10 10 8 8 7 6 6 5 6 5 3 1 1 1 1 2 2 1 1 3 2 7 6 5 6 6 5 6 2 4 5 4 5 4 7 15 14 7 3 5 7 7 8 9 7 6 6 6 9
7 7 7 7 6 6 7 8 8 8 8 8 8 9 10 11 12 12 12 12 9 6 6 7 7 5 4 2 3 0 3 3 3 5 7 7 5 4 6 7 8 8 6 5 5 5 4 4 3 1 1 2 1 1 0 0 2 1 1 2 4 6 5 8 5 6 6 3 3 6 3 6 6 12 14 11 5 5 7 7 6 7 7 6 6 5 6 8
8 7 7 6 6 6 8 9 9 9 9 10 11 12 13 14 15 14 14 12 9 7 6 6 6 3 1 2 2 2 3 3 4 7 9 8 6 4 3 3 6 7 6 6 6 4 3 5 2 2 1 2 1 0 2 3 2 0 1 0 1 1 5 5 3 8 6 2 2 7 2 7 9 10 11 10 5 8 7 8 7 6 5 5 5 6 6 7
8 7 7 6 7 9 11 11 11 11 11 12 13 14 15 15 15 14 14 11 8 7 7 6 5 2 1 3 2 1 2 2 5 9 9 9 7 4 5 5 6 7 5 6 5 3 4 5 3 3 1 1 2 2 3 3 2 1 1 3 2 3 5 6 1 8 6 2 2 7 2 7 10 11 9 4 5 8 7 8 7 6 6 6 6 6 5 4
8 8 8 8 10 11 12 12 12 12 12 13 14 14 13 12 12 11 10 8 6 6 5 4 3 1 1 3 1 1 2 2 5 8 7 8 7 5 9 9 7 7 6 6 3 3 4 4 2 2 1 1 3 3 3 4 4 2 2 3 3 3 3 4 2 2 5 3 2 4 4 4 6 9 6 1 4 5 6 8 8 6 5 4 5 4 4 4
9 8 9 10 11 12 13 13 12 12 12 12 13 13 11 9 7 5 4 4 5 6 4 3 4 2 1 1 1 1 2 2 5 6 5 6 6 5 7 5 5 9 8 6 4 3 2 2 1 0 2 1 2 4 4 3 4 3 1 3 4 3 2 2 4 4 3 5 4 5 5 7 9 10 10 7 3 6 8 9 7 1 4 4 2 3 4 5
10 9 10 11 12 13 13 13 12 12 11 11 13 13 9 6 4 1 1 4 5 4 3 3 4 3 1 2 1 2 4 6 7 5 3 5 6 5 4 2 4 8 8 4 2 1 2 2 2 1 3 2 1 4 2 4 3 2 3 3 4 2 3 4 4 3 4 4 4 4 5 10 11 12 14 11 6 8 9 4 2 6 7 7 7 7 6 7
11 11 11 11 12 13 14 13 11 11 11 11 13 12 6 4 2 0 2 4 2 1 1 2 1 1 2 2 1 5 9 7 6 3 1 5 7 5 3 3 3 3 4 3 3 1 1 2 3 1 3 3 4 5 8 7 4 5 5 4 4 4 5 6 5 3 4 3 4 6 7 9 10 12 13 10 5 2 1 5 7 7 7 7 8 7 7 9
12 12 12 13 14 14 15 14 10 10 11 10 12 9 4 4 3 2 4 3 1 2 1 2 1 1 2 2 4 9 8 4 2 0 3 8 8 5 2 1 2 3 1 2 2 2 2 0 2 4 6 6 5 5 6 5 2 2 2 2 4 5 6 5 4 4 3 3 5 8 8 9 11 13 10 7 5 6 7 9 8 8 8 8 8 8 8 8
12 13 13 14 15 14 15 13 9 9 10 9 10 5 2 2 2 2 4 4 2 1 0 3 2 1 2 1 3 7 3 1 2 1 6 9 4 2 3 1 4 3 3 3 2 1 1 2 6 7 7 5 3 1 0 2 2 2 2 3 5 4 6 5 3 4 1 2 5 6 5 9 11 11 8 5 7 7 6 9 9 10 10 9 10 11 9 7
13 13 14 14 15 15 15 12 7 9 9 7 7 5 4 3 2 2 1 3 5 1 1 4 1 1 2 0 3 5 1 1 3 2 8 9 1 1 2 2 3 2 4 1 1 2 2 5 8 6 3 2 2 2 4 2 1 2 1 0 4 4 4 4 3 4 1 2 5 5 5 9 11 7 7 6 8 6 6 10 10 11 12 10 9 10 10 10
13 14 14 15 16 15 15 9 5 9 11 8 7 6 3 3 3 2 2 0 4 2 2 2 1 2 2 1 3 4 2 1 1 3 8 9 2 1 0 1 1 3 3 1 4 1 3 5 5 2 3 4 3 2 4 4 2 1 1 1 4 4 2 3 3 3 2 3 4 5 6 8 6 5 7 6 7 8 9 12 11 11 11 9 9 9 10 10
14 15 15 16 16 16 14 7 5 10 9 8 8 6 3 2 2 1 1 0 2 2 1 1 1 1 1 2 4 3 1 0 1 2 6 5 1 0 1 2 1 2 3 3 5 4 6 5 1 2 3 1 2 4 3 2 4 3 3 4 4 4 2 4 3 3 3 4 3 4 5 5 2 6 6 5 7 9 10 12 12 10 9 9 9 9 9 9
15 16 16 17 16 17 14 4 6 9 4 4 6 4 3 1 0 0 1 2 2 3 1 1 1 1 2 3 3 1 0 2 1 2 5 3 1 1 0 1 1 2 5 2 1 4 6 4 1 2 2 2 1 4 2 3 1 4 3 5 5 3 2 3 4 5 5 4 3 3 3 5 3 5 6 4 7 8 8 10 11 9 9 9 9 9 8 8
16 16 17 17 17 18 11 1 6 9 2 3 3 1 2 1 1 0 2 4 3 3 2 1 1 2 3 2 2 1 1 3 2 1 3 2 0 1 0 2 0 2 4 1 1 2 3 2 3 3 2 3 3 3 4 5 4 3 3 5 4 3 1 4 4 4 1 2 2 2 2 4 5 2 4 5 8 8 7 9 9 8 8 8 8 7 7 7
16 16 16 16 16 16 7 2 7 7 1 2 3 2 2 1 1 1 2 5 3 2 1 1 0 1 2 1 1 2 1 4 2 2 2 2 2 2 1 3 0 2 2 2 3 2 0 4 5 4 4 2 1 2 3 5 6 3 4 4 1 2 3 3 2 1 3 2 4 2 4 3 5 3 2 6 9 8 8 8 8 7 8 7 7 7 7 6
16 16 16 15 14 12 7 4 6 3 1 4 4 2 2 2 2 0 4 4 2 0 1 2 1 1 2 1 2 2 2 3 2 2 1 1 2 3 0 3 3 4 2 4 1 5 0 2 1 2 2 1 3 4 3 3 3 5 5 3 3 3 3 1 2 2 2 2 5 5 3 3 4 2 1 4 8 7 7 7 7 7 7 7 7 7 7 6
16 16 16 15 11 9 8 5 4 4 3 4 2 2 3 3 2 3 5 1 1 1 0 1 1 2 3 4 4 2 2 2 1 3 1 2 1 2 0 3 2 4 4 4 4 6 1 1 4 4 2 3 4 4 2 3 1 5 2 2 3 1 2 2 3 2 2 2 3 6 1 2 3 3 1 3 5 5 4 5 5 6 6 6 7 7 6 6
16 16 16 15 10 9 7 3 5 6 5 4 4 4 3 2 3 6 3 1 0 1 1 0 1 2 5 6 5 4 3 2 2 2 2 2 2 3 1 1 2 1 3 1 3 4 2 0 2 3 2 4 2 3 2 3 3 2 3 3 4 4 2 2 2 3 4 2 5 6 2 4 1 3 1 2 1 5 5 5 5 5 6 6 6 6 6 6
16 15 15 13 10 10 7 3 7 7 5 6 6 4 2 3 4 6 1 2 0 2 2 2 3 3 6 5 4 5 4 4 4 4 3 3 4 5 3 2 3 4 4 5 3 4 4 3 0 1 1 1 1 3 2 2 2 3 4 3 4 4 3 4 4 4 3 3 5 5 1 5 1 2 2 3 2 5 6 5 5 5 6 5 6 6 6 5
16 14 12 11 9 10 7 5 9 8 7 8 6 2 4 4 4 2 2 3 1 2 2 2 3 3 4 3 1 4 4 4 3 3 1 2 3 4 3 1 2 3 4 4 4 4 3 1 2 2 2 2 3 3 5 5 5 4 3 4 4 3 3 3 3 2 1 4 3 2 4 2 2 0 3 5 6 6 5 5 6 6 5 5 6 5 6 6
15 13 10 8 8 9 9 8 9 9 8 7 4 4 6 5 1 2 2 3 1 2 1 1 3 4 3 3 2 4 3 2 3 3 0 1 4 2 2 2 2 2 1 2 3 4 4 4 3 2 2 2 3 2 2 3 3 4 2 3 3 2 2 3 3 2 2 4 3 1 3 1 1 3 2 4 6 5 5 5 4 5 6 6 6 5 6 8
14 12 9 6 6 9 10 9 9 9 8 5 3 5 6 3 1 1 2 3 2 3 2 1 4 5 3 2 2 3 3 2 3 3 2 3 4 2 3 6 5 3 0 1 2 1 1 3 2 1 1 2 2 1 3 2 2 3 2 4 3 2 2 3 2 1 3 4 4 2 0 1 2 3 3 5 4 3 4 4 4 6 5 5 5 6 7 8
13 10 8 6 6 9 10 9 9 9 7 3 5 6 4 1 2 1 1 4 2 4 4 3 2 4 4 2 2 2 2 2 4 4 3 3 3 1 2 4 5 3 3 2 2 0 1 3 3 1 1 2 1 1 2 3 1 2 1 4 2 3 3 2 3 4 3 2 3 2 0 1 3 3 2 3 5 6 7 7 8 9 7 7 7 7 7 7
12 9 7 5 6 11 11 9 9 9 4 4 6 4 2 2 2 1 1 2 1 2 6 5 3 3 4 4 3 4 2 1 3 4 2 2 2 1 1 1 3 4 3 2 1 1 1 3 4 2 2 2 3 2 1 1 1 1 2 1 2 4 5 2 3 2 2 2 3 1 3 2 3 2 1 5 7 7 8 9 9 8 8 8 7 6 7 7
10 5 4 4 7 11 10 8 9 7 3 5 5 1 2 1 1 2 1 2 1 0 3 4 2 1 2 3 3 5 4 2 2 3 2 1 2 2 3 1 1 1 1 1 1 1 1 4 5 1 1 2 2 2 3 2 0 2 1 3 2 1 4 3 0 3 4 1 3 1 2 2 1 2 2 5 8 8 8 8 8 8 8 8 8 8 9 8
8 3 2 4 8 10 8 8 8 4 4 6 4 1 1 1 1 1 0 1 1 1 3 1 2 1 2 1 3 5 5 3 3 4 2 1 1 1 2 2 1 0 2 1 1 1 1 2 6 2 1 4 1 4 3 5 2 2 2 2 1 2 1 1 1 1 2 1 3 4 3 1 1 1 1 6 8 8 8 8 9 10 10 9 10 11 10 9
6 3 2 5 10 10 9 8 6 4 5 5 2 0 1 0 1 1 1 0 0 1 2 1 2 2 2 1 1 4 3 1 3 3 1 1 2 2 3 1 2 3 5 2 1 2 1 1 5 4 1 2 3 3 1 4 4 2 2 3 2 2 2 1 1 2 1 1 2 4 4 4 3 1 4 6 7 8 9 9 10 11 11 11 11 11 10 10
3 2 1 7 13 11 9 7 4 5 5 2 1 1 1 0 2 2 1 1 1 1 0 1 1 2 2 2 1 2 1 0 2 1 1 1 2 1 2 2 2 5 7 3 1 2 2 1 3 5 3 3 3 1 2 2 1 2 3 4 3 2 0 1 1 1 3 2 1 1 2 2 3 3 7 8 6 8 9 9 9 10 10 11 12 11 11 11
3 3 2 9 15 11 6 5 4 3 3 2 1 1 1 1 1 3 2 0 1 1 1 2 1 0 1 2 2 1 2 2 1 0 1 2 3 1 0 1 1 4 5 4 2 2 2 1 2 4 4 3 3 3 3 3 3 3 3 1 1 0 2 2 3 3 2 2 3 2 1 1 3 5 7 7 7 8 9 9 9 10 10 11 12 12 12 11
4 2 3 10 15 8 4 5 2 2 4 1 1 1 0 1 1 2 2 2 1 0 1 1 1 1 0 1 1 1 2 2 2 1 1 1 1 1 1 0 2 2 1 2 2 1 0 2 0 4 4 3 5 5 2 2 3 3 2 1 2 2 3 3 2 3 1 1 2 3 2 2 3 6 8 7 6 7 9 9 9 9 9 10 11 11 12 11
3 1 3 12 15 5 5 4 4 3 2 1 0 0 0 1 1 1 2 2 1 1 2 2 0 0 0 1 1 1 1 1 1 1 0 0 1 2 2 4 4 2 1 1 2 2 1 2 1 4 4 3 4 4 3 1 2 3 2 3 2 2 2 3 4 3 1 2 2 1 1 3 5 6 7 6 6 7 9 9 9 9 9 9 11 13 13 10
0 3 2 11 14 5 5 2 1 2 2 1 2 2 2 1 1 0 1 1 1 1 1 1 0 0 1 1 1 1 2 0 1 1 0 0 0 1 2 4 3 2 1 1 1 2 2 0 2 3 5 6 6 5 5 4 3 3 1 3 3 4 4 2 1 2 1 2 1 1 4 3 4 5 7 8 9 10 10 11 10 10 10 10 12 14 12 9
2 1 2 7 13 9 4 3 4 2 1 2 3 2 2 2 0 1 1 1 1 1 1 1 1 0 1 0 0 2 2 1 1 2 2 1 1 1 2 4 2 1 0 2 2 1 1 1 2 3 0 2 3 3 3 3 3 2 2 4 4 5 5 3 1 3 1 2 2 1 4 4 5 10 14 16 16 16 15 15 13 11 11 12 13 13 9 8
2 2 3 6 8 8 3 1 4 4 1 2 2 2 2 1 2 1 1 0 1 1 1 1 1 1 1 2 2 3 2 1 1 2 3 2 2 1 2 3 1 1 2 3 2 1 2 0 1 4 5 4 5 6 3 1 3 3 3 5 4 3 4 4 4 2 1 1 3 2 3 7 8 11 15 15 15 15 15 15 14 12 12 14 14 11 9 11
2 1 1 2 4 4 4 4 5 3 1 3 2 1 2 2 3 1 1 0 0 1 0 0 1 1 1 2 2 2 3 2 1 1 1 2 2 2 2 2 2 1 2 1 1 3 4 2 1 2 4 6 6 7 4 3 2 2 4 5 5 6 6 7 5 2 1 1 3 4 6 9 7 8 11 12 12 12 12 13 13 12 13 14 11 10 12 13
2 1 1 1 1 1 3 3 3 4 3 2 3 0 2 3 2 1 1 1 1 1 1 1 3 3 1 0 1 1 4 5 2 1 1 1 3 4 3 2 2 1 2 2 1 4 4 2 3 1 4 6 7 8 3 4 4 5 7 6 6 8 8 7 3 3 4 1 5 6 8 7 5 9 11 11 12 12 12 12 11 12 15 13 11 12 13 14
2 1 1 1 1 2 1 2 2 4 4 2 2 1 1 2 1 2 1 2 3 3 1 1 3 5 4 1 2 0 3 3 2 2 1 1 3 3 3 2 2 1 3 3 3 2 3 2 3 2 4 7 7 5 3 8 6 7 8 7 7 7 8 6 3 4 5 3 5 6 8 3 4 10 12 11 11 11 10 10 12 16 16 13 13 15 15 16
2 1 1 3 2 1 1 1 2 4 3 2 2 1 1 2 1 2 1 2 1 3 2 1 4 6 5 2 3 2 3 2 3 4 1 1 3 2 1 1 2 3 4 2 2 2 1 1 2 1 2 6 5 6 8 9 9 9 9 8 8 9 9 7 6 6 5 4 5 7 6 2 4 9 12 10 10 10 11 13 16 17 14 13 15 16 16 17
2 2 2 4 2 2 1 1 2 4 2 3 1 1 1 1 1 1 1 1 1 1 1 1 4 5 4 2 4 2 4 4 4 5 4 2 2 1 1 1 1 3 4 1 2 3 2 2 3 4 3 5 2 7 8 8 10 10 9 9 8 9 8 6 5 5 4 4 6 7 5 4 6 10 11 11 12 13 12 14 16 14 11 12 13 15 17 18
2 0 1 4 1 1 1 2 3 3 0 1 1 1 1 2 2 1 1 1 1 1 2 3 1 2 2 2 1 3 4 3 4 4 3 2 2 1 1 0 2 1 1 0 1 1 2 1 2 3 2 4 2 3 6 5 4 4 6 6 4 6 7 6 3 5 5 3 4 4 4 6 8 11 14 16 16 13 10 11 12 10 9 12 14 16 17 17
Wind_Direction
36 37 43 55 63 63 70 75 100 160 243 286 295 290 288 286 289 298 303 305 307 316 330 331 329 323 317 318 316 316 318 311 302 299 227 233 320 320 314 307 302 295 287 290 301 316 324 324 308 277 262 284 204 198 285 115 80 66 83 127 246 242 196 227 282 314 138 158 207 211 182 155 202 253 123 41 54 119 216 246 249 28 26 88 127 148 155 160
25 19 18 29 46 59 69 77 94 131 240 289 303 299 291 283 284 285 286 294 294 305 322 327 328 321 314 314 311 318 324 316 316 321 157 333 334 327 317 311 303 293 286 292 303 325 335 311 312 315 278 295 274 210 61 287 95 112 138 140 233 221 210 236 165 103 78 174 208 213 199 180 191 191 146 186 255 217 217 256 217 85 20 76 117 137 149 157
17 11 3 1 1 13 23 115 126 291 316 344 355 353 336 312 293 277 268 275 283 301 319 327 328 321 313 307 308 321 330 335 327 257 317 337 334 328 325 316 303 294 285 287 298 308 301 285 300 316 356 288 261 150 118 278 69 172 143 143 245 215 192 352 94 100 71 159 179 213 203 193 183 147 140 201 232 217 215 233 187 190 205 158 142 143 151 160
9 4 355 347 338 327 308 294 301 308 330 2 27 18 6 353 331 296 273 267 280 302 320 333 332 328 317 305 310 323 340 5 336 229 337 338 331 329 332 321 305 293 287 284 288 285 286 290 297 303 50 300 286 106 151 212 198 201 143 180 234 207 167 298 90 92 45 115 154 180 150 201 187 144 157 171 210 253 233 222 197 204 195 173 169 158 160 166
360 354 347 340 333 329 324 316 309 310 314 303 324 350 356 356 353 340 310 280 285 307 325 336 340 338 330 317 316 328 10 30 304 293 335 335 328 330 342 338 323 303 295 285 281 283 288 287 294 322 40 297 308 19 231 217 139 211 225 203 209 141 168 214 143 93 238 122 134 132 132 230 169 145 179 165 199 243 225 216 209 212 196 174 173 172 170 173
350 346 340 333 333 331 327 323 314 310 309 303 307 324 342 349 351 352 342 317 305 318 325 334 347 348 341 329 309 329 46 118 301 337 330 333 325 327 354 360 356 335 305 277 279 289 296 291 305 319 5 324 268 220 243 261 111 186 276 257 194 149 164 186 155 231 226 99 108 152 183 279 66 253 226 187 220 233 205 191 193 208 190 175 172 171 178 183
346 343 338 328 329 327 323 323 316 312 307 305 310 318 329 338 343 342 336 327 312 317 326 331 344 348 346 332 308 337 100 219 320 338 326 336 323 325 357 6 2 354 331 311 301 293 304 304 290 249 201 306 255 202 236 319 90 149 257 290 280 162 162 165 163 209 69 115 191 153 344 318 206 258 275 229 240 239 231 210 174 162 156 165 169 176 187 190
353 352 344 331 330 331 326 325 322 317 309 304 308 312 315 325 333 333 326 314 302 305 317 324 335 342 344 336 331 4 303 243 340 335 328 338 324 330 350 1 352 342 338 323 296 283 313 295 269 248 265 274 229 184 287 351 23 165 221 274 284 206 171 154 144 160 182 238 201 58 317 246 228 246 290 260 256 247 235 230 193 146 128 156 175 187 192 193
11 12 9 360 350 344 336 336 332 321 313 306 304 301 304 319 328 332 325 311 304 300 307 317 323 332 335 336 42 14 289 232 357 328 334 343 338 347 348 352 346 340 347 324 296 273 280 302 288 282 256 255 210 303 313 34 288 215 209 264 289 253 183 150 155 175 195 229 130 38 273 263 265 268 278 262 257 257 233 218 200 163 151 173 182 190 192 194
17 18 17 9 359 353 346 344 339 329 321 308 300 297 300 318 338 342 334 319 307 301 307 313 316 325 329 343 63 22 283 338 344 324 343 346 343 2 3 2 0 4 357 334 320 287 225 297 313 293 233 254 254 229 141 157 211 220 206 305 292 256 218 164 188 204 195 222 167 194 256 272 290 282 268 263 253 250 227 216 201 177 194 197 188 194 191 196
12 12 10 2 354 350 347 343 339 334 326 310 298 291 286 295 329 343 343 333 312 302 309 311 316 320 320 354 104 227 277 334 345 341 345 335 340 3 10 12 13 11 357 339 337 342 334 309 323 344 236 304 330 279 216 186 187 171 62 338 304 288 276 196 203 218 172 227 190 172 269 264 265 166 243 254 258 245 210 218 206 193 217 211 198 192 183 201
3 4 3 358 351 346 343 337 332 326 321 314 299 287 275 273 298 323 335 336 320 305 307 314 316 312 323 354 190 223 296 337 357 360 345 333 333 350 0 9 12 4 351 342 338 347 340 317 358 36 244 238 358 303 253 219 91 57 86 355 305 335 305 228 205 199 158 204 183 130 321 282 185 218 241 251 259 258 224 220 211 207 224 218 200 187 185 201
354 357 359 357 353 350 348 340 333 325 319 314 303 293 284 279 288 302 317 326 322 305 298 313 313 305 344 330 229 265 2 357 12 358 348 337 318 337 354 1 359 347 339 337 325 338 346 332 21 115 223 100 200 245 186 25 69 339 85 143 306 359 307 242 190 164 152 194 166 116 317 280 234 231 248 264 232 205 227 232 227 218 224 221 203 195 201 197
356 356 357 357 354 349 343 336 331 324 317 311 305 298 290 285 285 289 302 313 313 301 290 305 305 291 31 270 241 46 36 53 26 354 350 341 325 336 354 349 335 337 343 339 322 325 353 352 37 116 67 85 202 305 32 1 50 341 304 184 305 341 287 295 153 151 150 222 134 101 203 262 271 255 260 272 212 172 210 237 240 232 227 221 209 204 206 201
3 360 357 350 339 334 332 329 327 324 320 314 309 304 297 289 283 284 293 299 303 294 287 298 286 243 24 290 228 80 33 52 15 355 352 348 349 341 335 329 312 319 320 322 334 333 348 4 62 102 350 7 65 44 4 339 356 78 240 301 312 192 264 326 80 156 159 226 121 107 209 263 276 272 272 276 155 162 207 241 246 238 235 229 222 209 194 196
11 3 353 341 333 331 329 329 330 329 327 323 321 319 310 298 288 287 288 289 299 288 285 310 280 197 20 299 208 91 15 27 5 351 340 346 2 340 329 325 313 321 296 276 314 327 343 27 73 121 143 23 75 81 24 352 325 334 163 248 262 199 267 319 311 214 153 146 179 181 231 269 274 274 284 22 132 174 217 245 247 241 253 245 219 193 154 132
14 3 351 342 338 336 333 334 332 332 334 331 331 330 322 312 302 294 288 297 302 278 263 291 309 343 68 316 33 25 331 332 326 329 335 350 357 340 336 331 323 337 321 278 274 306 346 48 70 237 79 52 113 99 37 326 291 305 196 243 255 211 235 258 288 289 144 136 214 226 239 256 271 282 288 292 237 217 235 251 259 298 19 30 81 97 89 91
11 3 354 348 344 343 342 340 337 338 340 336 334 334 330 322 311 292 308 313 304 281 262 285 328 12 294 307 358 301 319 312 306 315 341 352 342 330 328 304 312 334 343 327 291 303 350 15 60 359 358 356 157 122 152 232 215 213 201 226 277 273 249 242 261 256 172 169 219 240 259 257 271 281 282 288 272 241 241 255 28 59 57 54 61 64 62 64
7 3 356 351 349 348 348 346 344 344 345 344 337 336 342 342 342 5 332 342 346 317 281 278 350 122 251 297 336 318 317 305 307 312 350 351 338 319 292 256 285 338 21 10 324 331 91 19 42 359 297 257 234 196 198 214 190 184 185 181 230 269 271 250 251 236 153 163 236 238 251 262 275 275 277 297 321 299 182 81 71 68 63 59 62 63 71 73
6 3 357 355 353 350 350 348 349 350 350 353 345 344 6 7 5 349 338 3 104 160 203 247 204 188 290 319 326 327 321 288 296 99 11 345 327 327 336 245 23 33 68 179 280 330 106 16 270 229 232 233 246 229 210 227 215 196 196 211 237 249 275 268 255 269 116 118 256 239 243 266 271 272 287 317 15 53 74 81 75 68 61 57 59 55 64 78
5 3 359 358 355 352 350 347 354 360 355 357 3 17 92 54 33 316 323 324 284 139 162 256 230 247 283 269 327 346 349 273 327 47 3 343 315 347 6 48 46 11 267 192 177 338 85 253 252 227 229 240 254 246 133 304 334 341 255 270 284 247 256 274 263 278 58 99 268 261 262 272 272 283 314 2 61 58 67 85 79 72 68 60 61 58 60 68
2 0 358 358 357 353 350 349 0 8 5 12 33 68 122 114 131 215 281 315 299 336 305 290 307 285 279 278 348 4 52 10 348 335 354 355 19 118 339 39 57 274 286 95 122 342 323 252 248 239 257 327 342 47 61 26 359 345 322 284 290 264 264 297 331 326 20 143 264 303 316 284 289 321 5 41 79 70 62 83 83 78 75 66 67 65 64 64
359 357 357 356 356 354 349 352 4 10 20 37 57 78 101 106 131 173 125 303 293 324 339 321 359 323 320 316 333 2 49 30 323 292 349 3 35 134 80 39 295 269 311 140 176 251 283 251 244 271 6 29 344 346 57 34 10 290 230 160 263 284 312 285 306 315 258 228 267 322 325 291 306 39 51 40 76 80 67 76 74 75 79 75 74 71 71 71
356 355 355 352 353 352 345 345 16 15 25 48 61 72 74 98 127 130 103 228 295 316 286 242 235 280 297 294 319 2 45 267 217 283 351 15 40 6 160 192 285 284 270 216 188 219 245 245 238 18 7 62 314 326 24 35 335 296 216 200 243 276 274 238 270 311 302 311 317 342 333 313 359 88 85 43 66 73 67 75 71 66 73 73 71 65 66 72
355 354 352 350 351 350 344 341 26 14 9 46 53 64 59 61 157 69 64 42 335 307 300 316 338 303 292 303 296 255 227 310 243 296 350 35 120 346 227 192 114 242 258 259 226 253 254 249 112 59 10 59 67 314 294 164 253 310 244 206 208 199 265 289 333 2 8 345 337 38 4 312 341 93 110 72 68 71 64 73 73 68 66 66 65 60 61 65
353 352 351 349 348 350 349 354 7 358 353 49 36 21 23 25 337 355 82 56 346 299 332 341 332 312 307 313 272 178 50 311 266 311 1 31 82 123 152 302 93 220 248 297 347 271 275 340 63 82 50 32 39 297 271 150 131 298 238 185 169 131 334 316 353 23 21 265 270 76 126 263 312 23 127 101 81 75 67 69 72 72 70 70 69 64 64 61
349 350 351 349 348 354 360 335 342 348 19 1 340 303 298 312 329 285 56 39 342 285 19 285 286 345 287 275 353 82 339 296 313 344 1 26 352 87 172 285 341 248 250 55 354 274 268 13 22 48 57 32 339 270 266 129 118 259 224 163 163 336 308 300 66 128 230 264 304 300 153 202 303 313 160 112 89 72 64 66 65 69 74 78 78 72 71 69
346 348 352 352 353 1 9 354 348 18 33 327 324 295 271 291 309 130 83 53 317 73 85 276 291 295 276 335 41 89 272 310 27 302 307 58 356 65 83 252 196 256 270 103 272 271 239 31 358 96 67 317 220 231 252 109 115 250 222 198 267 275 262 227 128 212 252 19 321 301 133 157 281 283 94 76 83 77 69 73 69 73 78 80 81 74 70 69
345 347 351 354 356 358 0 7 20 26 353 343 360 311 287 303 335 62 78 88 292 24 226 283 334 289 335 13 8 19 341 347 91 261 326 65 349 64 80 248 187 277 299 127 208 259 305 193 184 142 151 244 234 243 230 114 233 252 218 281 312 322 200 154 143 185 26 45 268 279 193 145 274 238 156 41 84 107 96 85 76 76 81 82 83 78 71 61
345 347 348 352 360 358 353 15 24 6 349 351 342 306 310 341 56 62 46 257 277 335 242 44 341 321 19 21 336 339 14 327 303 323 4 45 352 19 91 225 78 2 324 4 233 256 329 204 168 118 185 222 234 270 214 148 245 303 28 344 353 29 72 76 108 112 53 349 255 272 249 120 332 255 196 354 103 138 119 89 68 66 75 78 81 78 72 64
344 346 349 353 4 6 359 358 357 352 340 337 326 320 9 24 62 83 77 255 251 330 345 350 320 7 36 31 320 326 359 324 324 12 360 358 7 1 22 36 26 35 9 350 314 295 355 31 289 325 280 177 48 331 326 19 9 42 48 20 13 3 24 29 1 48 68 272 266 292 340 110 125 283 29 21 55 110 115 107 95 87 82 83 84 76 69 61
345 345 348 353 5 10 6 350 345 347 337 331 331 23 72 39 25 97 272 315 331 324 347 297 304 357 16 27 325 306 338 325 335 46 8 11 41 6 21 50 350 16 358 333 327 321 338 334 298 322 337 57 64 357 336 360 29 47 46 47 38 352 2 8 329 357 160 243 260 6 43 94 193 323 53 72 81 94 111 118 121 114 104 93 83 76 65 44
344 342 344 350 2 5 3 352 347 347 337 332 352 53 76 71 2 245 296 333 308 298 326 243 299 324 348 22 347 308 332 303 325 30 330 73 64 20 352 16 36 45 300 288 342 346 338 315 333 10 340 23 82 62 336 330 4 15 39 83 81 48 10 306 289 332 290 259 257 75 64 258 193 59 70 113 114 126 119 115 122 111 111 106 83 74 61 32
342 343 343 346 2 3 358 354 350 347 339 340 47 54 59 71 258 299 327 284 270 325 332 283 320 340 22 49 305 332 10 299 320 16 357 33 50 15 338 350 8 43 39 351 345 351 349 304 324 72 299 11 62 149 166 184 310 296 207 130 121 135 148 239 234 223 265 280 293 308 6 238 144 129 186 159 133 116 85 70 57 56 72 90 63 46 46 27
341 338 338 342 358 357 353 352 351 349 343 11 66 63 73 182 261 351 296 272 306 332 312 313 4 15 9 337 300 4 39 292 331 13 19 49 60 7 344 336 341 17 62 33 317 284 134 257 256 269 269 96 70 256 143 100 355 271 161 89 99 185 159 187 213 210 231 321 317 286 169 30 96 132 181 96 69 56 54 47 42 35 32 47 37 26 33 20
338 334 336 340 344 346 347 348 347 348 355 66 65 62 157 212 242 164 223 281 314 307 319 343 35 39 347 327 332 356 19 280 329 2 8 82 95 33 21 296 319 14 72 111 288 346 31 276 273 336 358 110 161 236 19 54 288 332 53 80 225 181 135 130 274 282 37 36 288 220 116 71 71 101 356 35 49 47 48 45 41 35 30 31 25 21 21 11
345 342 332 336 339 338 339 340 341 347 31 81 83 122 207 202 183 182 242 324 302 334 25 5 352 32 351 323 318 335 352 321 328 360 337 4 68 10 351 301 272 40 78 134 275 275 131 282 290 2 345 273 193 116 23 345 139 94 116 252 265 98 100 101 39 347 18 27 267 335 98 162 144 144 327 18 43 40 35 38 35 31 29 25 21 16 10 12
355 2 327 341 342 336 337 337 339 1 65 71 75 148 162 137 181 195 289 354 322 25 65 64 263 68 53 336 298 315 343 346 340 360 343 331 28 58 30 327 277 350 340 348 293 282 105 302 298 307 186 283 341 67 12 331 346 130 187 265 38 67 352 9 74 348 348 314 277 316 346 51 67 120 33 33 44 39 24 26 27 22 21 20 15 8 5 12
6 27 349 352 349 343 340 334 342 44 69 61 58 232 91 111 269 278 231 261 44 65 75 234 274 15 24 52 266 303 344 4 321 349 49 356 353 61 67 344 292 330 341 17 152 281 38 97 286 291 220 284 2 51 15 321 332 1 13 355 29 133 176 181 144 166 181 263 271 309 349 44 16 344 91 66 50 45 28 21 22 16 16 15 8 2 2 6
28 51 321 352 358 346 334 338 12 59 65 77 148 194 56 39 277 282 233 191 116 108 102 253 323 1 334 355 359 307 348 283 276 326 58 12 16 41 44 25 319 315 325 356 98 302 1 115 259 294 326 336 345 339 179 175 311 11 34 8 343 340 92 103 332 134 137 188 222 324 353 67 19 17 77 68 48 50 36 23 17 8 10 11 4 360 1 358
54 55 297 353 0 341 338 20 42 65 84 80 55 11 19 91 290 306 295 115 112 198 173 160 167 204 290 335 334 295 325 317 272 259 309 29 47 11 334 103 304 310 332 5 39 357 353 121 246 298 327 327 282 246 198 166 183 162 117 100 189 127 61 56 314 314 79 139 174 151 225 181 68 58 68 54 43 48 34 23 13 2 4 6 360 359 356 345
68 63 287 353 359 342 30 52 358 56 92 76 19 58 14 70 72 314 318 15 51 300 51 105 168 194 219 278 298 304 337 318 300 349 358 64 61 269 219 44 302 296 6 354 346 331 338 97 357 284 273 265 267 266 249 189 175 140 105 79 143 109 91 116 236 279 359 309 214 144 185 202 109 77 66 50 40 42 31 20 10 0 0 360 356 355 345 337
71 230 286 356 354 349 75 45 331 13 54 262 301 72 338 52 53 325 343 18 20 3 14 20 105 59 243 222 358 346 326 299 305 340 334 219 213 237 304 350 337 334 57 334 337 349 359 87 29 293 291 315 314 310 312 321 96 80 21 8 67 77 84 146 184 184 145 293 290 137 227 177 126 85 65 53 34 35 26 13 7 359 354 357 356 350 342 344
303 243 271 2 0 19 97 77 314 345 316 288 30 358 336 55 75 12 3 350 339 78 51 334 319 28 265 181 130 244 253 340 2 6 75 240 23 294 319 342 355 23 39 345 327 349 327 93 49 356 344 348 349 350 336 335 29 67 24 11 47 63 47 44 64 71 94 275 339 177 234 198 119 62 37 27 18 19 15 9 7 358 352 356 355 347 344 355
11 329 278 358 20 48 107 158 149 146 302 49 46 346 346 13 325 172 158 287 269 143 141 282 302 349 276 311 19 274 264 192 258 345 32 331 323 15 324 332 3 94 357 283 270 332 275 214 95 92 67 313 305 293 289 310 347 15 40 19 34 63 51 34 45 63 130 285 352 185 235 286 357 13 11 9 7 3 359 360 358 355 356 353 346 342 348 5
55 26 312 337 18 48 67 103 100 109 119 81 46 347 29 354 290 233 134 340 310 114 133 279 329 31 359 22 11 304 295 243 242 15 32 320 301 316 304 328 351 196 284 303 267 104 81 323 102 143 184 211 229 244 247 40 350 333 6 6 12 41 45 74 87 64 199 288 321 249 277 325 347 9 6 2 1 354 349 350 348 350 353 345 339 344 360 8
71 86 7 334 344 22 26 11 40 64 110 118 109 335 359 346 314 337 69 185 268 75 77 298 35 38 346 13 14 301 298 334 19 47 15 286 287 301 307 332 330 277 311 312 215 107 75 338 318 164 220 230 234 255 291 31 25 41 53 27 17 23 36 71 78 14 24 46 292 294 339 337 342 11 5 353 353 349 344 344 344 345 342 338 343 358 4 1
58 144 161 131 312 359 8 354 27 43 23 75 125 43 359 21 14 350 299 303 355 39 61 19 15 9 297 286 55 308 319 347 4 358 334 312 319 340 356 345 319 321 42 3 336 99 101 255 248 213 270 270 269 279 303 83 77 65 62 51 48 47 46 59 60 22 44 38 262 299 333 328 344 5 358 352 349 344 340 339 339 338 337 343 360 4 358 353
61 88 291 23 111 194 227 322 41 52 25 35 92 50 37 69 23 285 284 21 1 341 62 86 327 326 314 319 108 183 307 350 334 291 297 345 322 348 14 333 300 353 59 18 340 96 115 260 248 221 288 293 298 316 70 106 92 56 47 47 56 58 51 47 11 355 14 315 278 321 329 320 35 6 348 346 345 336 334 337 340 340 343 354 3 357 352 350
81 140 258 37 40 208 182 5 58 67 30 29 62 351 64 102 269 288 331 65 359 318 16 61 288 299 298 296 106 149 232 175 212 250 209 39 327 350 55 274 288 338 14 40 327 336 83 293 289 64 341 306 330 41 76 99 94 68 41 31 41 41 33 23 355 355 5 324 315 349 339 313 28 358 336 333 338 338 345 348 344 342 349 360 356 349 349 348
107 176 156 96 36 323 12 355 80 87 29 2 48 261 335 358 244 252 313 96 148 250 343 274 287 308 326 24 99 177 229 176 182 221 192 175 264 266 251 215 204 329 342 24 336 351 52 317 334 46 28 300 352 81 93 100 91 72 36 19 35 41 23 349 341 12 9 321 331 4 2 328 335 338 328 330 343 348 353 351 341 338 349 357 349 347 348 347
70 298 102 101 91 325 18 359 33 78 72 282 206 250 308 277 268 69 75 345 54 118 196 190 241 329 2 18 83 199 214 189 190 220 216 212 239 230 232 130 107 114 288 44 355 2 79 47 337 36 26 286 304 101 125 116 81 43 9 357 24 57 24 337 353 45 26 357 4 4 339 320 326 334 334 336 341 346 351 346 334 333 349 351 349 350 348 345